Regional Weather Roundup
Issued by NWS

Home | Current Version | Previous Version | Text Only | Print | Product List | Glossary Off
Versions: 1 2 3 4 5 6 7 8 9 10 11 12 13 14 15 16 17 18 19 20 21 22 23 24 25 26 27 28 29 30 31 32 33 34 35 36 37 38 39 40 41 42 43 44 45 46 47 48 49 50

000
ASUS43 KLOT 012000
RWRIL

ILLINOIS REGIONAL WEATHER ROUNDUP
NATIONAL WEATHER SERVICE CHICAGO/ROMEOVILLE IL
300 PM CDT SAT AUG 01 2015

NOTE: "FAIR" INDICATES FEW OR NO CLOUDS BELOW 12,000 FEET WITH NO
SIGNIFICANT WEATHER AND/OR OBSTRUCTIONS TO VISIBILITY.

* THESE STATIONS ARE NOT UNDER NWS QUALITY CONTROL. THEY ALSO MAY NOT
  REPORT WEATHER SUCH AS PRECIPITATION OR FOG.

ILZ001-002-007-009-015-016-024-012100-
NORTHWEST ILLINOIS

CITY           SKY/WX    TMP DP  RH WIND       PRES   REMARKS
MOLINE         MOSUNNY   86  60  41 SW13      29.97S HX  86
STERLING*      MOSUNNY   86  63  45 W13G18    29.93S HX  87
$$

ILZ003-004-008-010-011-017-018-012100-
NORTH CENTRAL ILLINOIS

CITY           SKY/WX    TMP DP  RH WIND       PRES   REMARKS
ROCKFORD       MOSUNNY   86  59  39 W15G23    29.95F HX  85
$$

ILZ005-006-012>014-019>023-012100-
NORTHEAST ILLINOIS

CITY           SKY/WX    TMP DP  RH WIND       PRES   REMARKS
CHICAGO-OHARE  MOSUNNY   86  56  35 W16G22    29.93F HX  85
CHICAGO-MIDWAY MOSUNNY   88  53  30 NW15G24   29.93F HX  86
AURORA         SUNNY     85  59  41 W13G21    29.96F HX  84
WAUKEGAN       MOSUNNY   83  57  41 W10G21    29.92F HX  82
DUPAGE AIRPORT SUNNY     85  58  39 W13G24    29.94F HX  84
WHEELING       SUNNY     86  54  33 W12G22    29.93F HX  84
NORTHERLY ISL    N/A     85  52  32 SW14        N/A  HX  83
$$

LMZ740>746-012100-
SOUTHERN LAKE MICHIGAN

STATION/POSITION SKY/WX   TEMP    WIND        PRES    VSBY  WAVE
                          AIR SEA DIR/SP/G                  HT/PER
                          (F)     (DEG/KT/KT) (MB)    (MI)  (FT/S)
HARRISON CRIB              80     290/ 11/ 15   N/A
BURNHAM HARBOR             84     260/ 10/ 15   N/A
CALUMET HARBOR             85     280/  4/ 11   N/A
BURNS HARBOR               78     360/  3/  3 1014.9F
MICHIGAN CITY              81     320/  1/  1   N/A
MICHIGAN CITY 6N           78 75   CALM  /  2   N/A           1/ 4
ST. JOSEPH                 74 74  300/  4/  4   N/A           2/ 4
$$

ILZ025>027-034>036-040-047-049-050-058-095>099-012100-
WEST-CENTRAL ILLINOIS

CITY           SKY/WX    TMP DP  RH WIND       PRES   REMARKS
QUINCY         PTSUNNY   85  70  60 SW9       30.00F HX  89
MACOMB*        PTSUNNY   85  62  46 SW7       30.02S HX  85
$$

ILZ028>032-037-038-041>044-048-051>054-059>061-012100-
CENTRAL ILLINOIS

CITY           SKY/WX    TMP DP  RH WIND       PRES   REMARKS
DECATUR        PTSUNNY   86  58  38 SW8       30.01F HX  85
PEORIA         PTSUNNY   88  57  34 SW10      29.99F HX  87
SPRINGFIELD    MOSUNNY   87  61  41 W8        30.01F HX  87
TAYLORVILLE    NOT AVBL
$$

ILZ033-039-045-046-055>057-062-063-012100-
EAST-CENTRAL ILLINOIS

CITY           SKY/WX    TMP DP  RH WIND       PRES   REMARKS
CHAMPAIGN      PTSUNNY   84  61  45 SW6       30.01F HX  84
MATTOON        PTSUNNY   84  53  34 VRB6      30.01F HX  82
$$

ILZ079-100>102-012100-
SOUTHWEST ILLINOIS

CITY           SKY/WX    TMP DP  RH WIND       PRES   REMARKS
CAHOKIA*       MOSUNNY   88  62  41 SW5       30.00F HX  88
$$

ILZ064>066-069>071-074>076-080>082-084>086-088>090-092>094-012100-
SOUTH-CENTRAL ILLINOIS

CITY           SKY/WX    TMP DP  RH WIND       PRES   REMARKS
CARBONDALE     MOSUNNY   87  64  46 CALM      30.02S HX  88
MARION         MOSUNNY   88  64  45 N5        30.02F HX  89
MT. VERNON     PTSUNNY   88  61  40 CALM      30.02F HX  88
SALEM*         PTSUNNY   87  53  30 NW3       30.02F HX  85
$$

ILZ067-068-072-073-078-083-087-091-012100-
SOUTHEAST ILLINOIS

CITY           SKY/WX    TMP DP  RH WIND       PRES   REMARKS
LAWRENCEVILLE  MOSUNNY   85  56  37 N7        30.01F HX  84
FLORA*         MOSUNNY   85  55  35 CALM      30.02S HX  83
HARRISBURG*    MOSUNNY   85  61  43 N3        30.03S HX  85
ROBINSON*      MOSUNNY   84  55  36 CALM      30.02F HX  83
CARMI*         MOSUNNY   85  56  36 CALM      30.00F HX  84
$$

ABBREVIATIONS USED IN REMARKS
   TC - TEMPERATURE IN CELSIUS
  WCI - WIND CHILL INDEX
   HX - HEAT INDEX
  VSB - VISIBILITY
$$




USA.gov is the U.S. government's official web portal to all federal, state and local government web resources and services.